NUDTSAT (42787 NORAD) Tracking and Keplerian Element Data

This shows tracking and keplerian element data for the satellite.

Feedback or suggestion? Click here.




ElementValue
Catalog42787
NameNUDTSAT
Epoch Orbit10107
Epoch Day110.11263331
Epoch Year2019
RAAN169.802
Inclination97.3613
Eccentricity0.0013555
Argument of Perigee75.3818
Mean Anonmoly284.8912
Mean Motion15.23243515
Decay Rate2.113E-05
L11 42787U 17036Y 19110.11263331 .00002113 00000-0 91990-4 0 9996
L22 42787 97.3613 169.8020 0013555 75.3818 284.8912 15.23243515101070

Live tracking and technical data element details for NUDTSAT (NORAD 42787). NUDTSAT can be tracked NOW for your location showing map with azimuth and elevation plus other details from your city location.

Track the satellite on the map from your city or location and see movement details for azimuth, elevation, latitude, longitude, range, height, and movement on the map or in text.







IsCatalogInMostPopularTable: catalog: 42787, numindb: 224
Update: records affected: 1



GetName: 42787 NUDTSAT

Hit Count: updated at: Sat, 20 Apr 2019 20:10:39 GMT